Regional Weather Roundup
Issued by NWS

Home | Current Version | Previous Version | Text Only | Print | Product List | Glossary Off
Versions: 1 2 3 4 5 6 7 8 9 10 11 12 13 14 15 16 17 18 19 20 21 22 23 24 25 26 27 28 29 30 31 32 33 34 35 36 37 38 39 40 41 42 43 44 45 46 47 48 49 50

000
ASUS43 KLMK 031702
RWRKY
KENTUCKY REGIONAL WEATHER ROUNDUP
NATIONAL WEATHER SERVICE LOUISVILLE KY
100 PM EDT FRI JUL 03 2015

NOTE "FAIR" INDICATES FEW OR NO CLOUDS BELOW 12,000 FEET
WITH NO SIGNIFICANT WEATHER AND/OR OBSTRUCTIONS TO VISIBILITY.

KYZ001>023-026-027-061>063-070>075-031800-
WESTERN AND SOUTH CENTRAL KENTUCKY

CITY           SKY/WX    TMP DP  RH WIND       PRES   REMARKS
PADUCAH        PTSUNNY   79  68  69 NW5       29.89F
HENDERSON      PTSUNNY   79  70  73 NW7       29.87S
OWENSBORO      PTSUNNY   77  71  81 N6        29.88S
HOPKINSVILLE   PTSUNNY   77  71  82 SW14      29.89F
BOWLING GREEN  CLOUDY    76  71  85 SW8       29.89F
GLASGOW        NOT AVBL
$$

KYZ024-025-028>034-038-045-046-053-031800-
NORTH CENTRAL KENTUCKY

CITY           SKY/WX    TMP DP  RH WIND       PRES   REMARKS
LOUISVILLE/SDF PTSUNNY   80  71  74 NW3       29.86S
LOUISVILLE/LOU CLOUDY    77  70  79 N5        29.87S
FORT KNOX      TSTM      72  68  88 SW6       29.87R VSB 1/4
$$

KYZ035>037-039>044-047>052-055>060-089>105-031800-
NORTHEAST KENTUCKY

CITY           SKY/WX    TMP DP  RH WIND       PRES   REMARKS
LEXINGTON      CLOUDY    76  69  79 CALM      29.89S
COVINGTON      CLOUDY    74  65  73 E6        29.90S
FRANKFORT      CLOUDY    76  69  79 VRB3      29.88S
$$

KYZ054-064>069-076>088-106>120-031800-
SOUTHEAST KENTUCKY

CITY           SKY/WX    TMP DP  RH WIND       PRES   REMARKS
JACKSON        LGT RAIN  69  67  93 VRB3      29.92S
LONDON         LGT RAIN  70  65  84 SE3       29.94R
SOMERSET       NOT AVBL
MIDDLESBORO    NOT AVBL
MONTICELLO     CLOUDY    75  72  91 W9G18     29.94F
$$



USA.gov is the U.S. government's official web portal to all federal, state and local government web resources and services.